Flag for Mexico Weather past 2 weeks in Guadalajara, Jalisco, Mexico

Now
72 °F

Partly cloudy.


Feels Like: 76 °F
Forecast: 62 / 80 °F
Wind: 7 mph from Southeast

Location: Don Miguel / Guadalaj

Current Time: Jul 25, 2014 at 10:56:24 PM

Latest Report: Jul 25, 2014 at 9:55 PM


Visibility: 10 mi

Pressure: 29.91 "Hg

Humidity: 61%

Dew point: 57 °F

Location of GuadalajaraLocation

Historic Weather in Guadalajara — Graph

°F

Guadalajara temperature yesterday

Maximum temperature yesterday: 79 °F (at 2:50 PM)
Minimum temperature yesterday: 61 °F (at 5:02 AM)
Average temperature yesterday: 67 °F

Past Weeks' High & Low Weather Summary

 TemperatureHumidityPressure
High86 °F (Jul 21, 4:49 PM)94% (Jul 11, 6:50 AM)30.28 "Hg (Jul 11, 6:50 AM)
Low57 °F (Jul 14, 5:09 AM)27% (Jul 23, 4:55 PM)29.76 "Hg (Jul 11, 6:55 PM)
Average69 °F69%30.10 "Hg
* Reported Jul 10 10:50 PM — Jul 25 9:55 PM, Guadalajara, Weather by CustomWeather, © 2014

Note: Actual official high and low records may vary slightly from our data, if they occured in-between our weather recording intervals... More about our weather records

Advertising

Guadalajara weather history for previous 24 hours

 ConditionsComfort  
Time TempWeatherWind HumidityBarometerVisibility
9:55 PM
Jul 25
72 °FPartly cloudy.7 mph61%29.91 "Hg10 mi
7:52 PM75 °FPartly sunny.8 mph54%30.13 "Hg10 mi
5:49 PM82 °FBroken clouds.7 mph30%30.13 "Hg10 mi
4:50 PM81 °FPartly sunny.7 mph34%30.15 "Hg10 mi
1:51 PM77 °FScattered clouds.7 mph47%30.23 "Hg10 mi
12:49 PM75 °FScattered clouds.8 mph54%29.94 "Hg10 mi
11:47 AM77 °FScattered clouds.6 mph83%30.26 "Hg10 mi
10:50 AM70 °FScattered clouds.5 mph64%30.27 "Hg8 mi
9:46 AM66 °FPassing clouds.No wind73%30.00 "Hg8 mi
8:47 AM61 °FBroken clouds.No wind83%30.25 "Hg7 mi
7:45 AM59 °FPartly cloudy.No wind82%30.23 "Hg7 mi
6:54 AM59 °FPartly cloudy.No wind88%29.96 "Hg8 mi
5:54 AM59 °FPartly cloudy.2 mph88%30.20 "Hg8 mi
4:54 AM59 °FPartly cloudy.2 mph88%30.21 "Hg10 mi
3:55 AM59 °FPartly cloudy.3 mph88%29.90 "Hg10 mi
2:55 AM59 °FPartly cloudy.6 mph88%30.21 "Hg10 mi
1:48 AM61 °FPartly cloudy.3 mph88%30.23 "Hg10 mi
12:51 AM61 °FMostly cloudy.2 mph88%29.94 "Hg10 mi
11:53 PM
Jul 24
61 °FMostly cloudy.6 mph88%30.23 "Hg10 mi
Weather by CustomWeather, © 2014

See weather overviewHow to use our weather pages